Location: La Commune
(50.7500°N, 1.9333°E)
Time: 10:05:18
(UTC+00:00)

Daily predictions for brighter satellites

Satellite Brightness Start Highest point End
(mag) Time Altitude Azimuth Time Altitude Azimuth Time Altitude Azimuth
Cosmos 2082 3.9 20:38:43 10° SSW 20:44:20 81° WNW 20:49:59 10° NNE
Cosmos 2227 4.4 20:39:57 10° S 20:45:30 54° ESE 20:51:07 10° NE
Okean 3 Rocket 4.1 20:41:53 10° N 20:46:12 47° ENE 20:50:29 10° SSE
Cosmos 2266 Rocket 4.5 20:41:32 10° NNW 20:47:40 65° W 20:53:53 10° S
Meteor 2-20 Rocket 4.4 20:42:23 10° S 20:48:09 73° E 20:54:10 10° NNE
CZ-4 R/B 3.8 20:45:36 10° SW 20:48:21 19° W 20:51:09 10° NW
Cosmos 2263 Rocket 3.7 20:43:18 10° WSW 20:48:32 41° NW 20:53:49 10° NNE
Helios 1A Rocket 2.8 20:45:36 10° N 20:48:42 61° WNW 20:51:47 10° SSW
Ariane Rocket 3.4 20:44:56 10° SE 20:49:50 51° ENE 20:54:45 10° N
Okean-O 2.9 20:46:31 10° S 20:50:53 71° WSW 20:55:16 10° NNW
Cosmos 1805 Rocket 4.4 20:48:27 10° N 20:52:27 35° ENE 20:56:26 10° SE
Spot 2 Rocket 3.9 20:47:45 10° S 20:52:46 63° WSW 20:57:50 10° NNW
Cosmos 1340 Rocket 3.0 20:52:11 10° N 20:55:54 51° ENE 20:59:32 10° SSE
NOSS 3-2 (A) 3.3 20:51:19 10° SSW 20:56:06 48° ESE 21:01:49 10° NE
CZ-4B R/B 4.3 20:51:00 10° SSW 20:56:07 41° W 21:01:12 10° NNW
Cosmos 1408 Rocket 4.3 20:52:29 10° N 20:56:38 39° ENE 21:00:47 10° SE
Cosmos 1603 3.8 20:51:53 10° NNW 20:57:41 87° ENE 21:03:24 10° SSE
Cosmos 1842 Rocket 3.6 20:53:53 10° S 20:58:18 73° E 21:02:45 10° NNE
USA 215 3.5 20:52:17 10° ESE 20:58:48 73° NNE 21:05:19 10° WNW
Cosmos 773 Rocket 4.0 20:55:30 10° SSW 21:00:38 88° ESE 21:05:51 10° NNE
BREEZE-M DEB (TANK) 3.2 20:59:29 10° WSW 21:00:46 14° SSW 21:01:56 10° S
Cosmos 1570 Rocket 4.3 21:00:30 10° SSW 21:05:50 78° WNW 21:11:13 10° NNE
USA 245 2.9 21:03:38 10° SSE 21:07:23 86° ENE 21:10:28 10° NNW
Meteor 2-10 Rocket 4.1 21:01:58 10° NNW 21:07:45 69° W 21:13:26 10° S
Cosmos 1844 Rocket 2.6 21:02:20 10° SSW 21:07:53 76° ESE 21:13:27 10° NNE
SL-14 R/B 3.1 21:07:26 10° S 21:11:08 71° E 21:14:51 10° NNE
Cosmos 1238 Rocket 4.2 21:07:55 10° SSW 21:12:40 52° WNW 21:17:17 10° N
CZ-4C R/B 3.7 21:07:15 10° NW 21:13:56 47° WSW 21:22:05 10° SSE
Cosmos 1553 Rocket 4.4 21:08:07 10° SSE 21:14:11 49° E 21:20:14 10° NNE
Cosmos 1833 Rocket 3.6 21:11:58 10° NNW 21:17:17 40° NE 21:22:35 10° ESE
Cosmos 1151 Rocket 3.4 21:14:44 10° SSE 21:18:53 47° E 21:23:03 10° NNE
Cosmos 2082 Rocket 4.5 21:18:18 10° N 21:21:49 16° NNE 21:25:20 10° ENE
CZ-2C R/B 2.4 21:23:48 15° SE 21:25:51 45° ENE 21:28:31 10° N
Cosmos 1953 3.5 21:23:56 10° NNE 21:26:59 25° ENE 21:29:35 12° SE
SL-24 R/B - RUBIN 2 3.5 21:23:51 10° SW 21:28:23 89° ESE 21:32:45 10° NE
Cosmos 1844 3.8 21:23:15 10° SSW 21:29:02 86° WNW 21:34:54 10° NNE
CZ-4B R/B 3.6 21:24:46 10° SSE 21:29:48 83° WSW 21:35:02 10° NNW
Okean O Rocket 3.2 21:26:37 10° SSW 21:30:26 30° W 21:34:19 10° NNW
In-Cosmos 22 4.4 21:30:10 10° SSW 21:35:56 85° WNW 21:41:44 10° NNE
NOSS 3-2 (C) 3.6 21:32:57 10° S 21:37:34 38° ESE 21:42:59 10° NE
Cosmos 1461 3.4 21:39:24 10° NW 21:42:39 36° WSW 21:45:06 15° S
NOSS 2-3 (C) 4.5 21:42:37 17° SE 21:43:33 18° ESE 21:46:03 10° ENE
USA 186 4.0 21:43:01 10° WSW 21:43:50 11° W 21:44:39 10° WNW
Cosmos 1745 Rocket 4.3 21:39:41 10° N 21:45:51 57° ENE 21:51:04 15° SSE
CZ-4B R/B 3.8 21:42:40 10° S 21:46:19 42° W 21:50:07 10° NNW
Sich 1 4.4 21:49:10 10° NNW 21:53:02 34° W 21:56:54 10° SSW
Cosmos 1500 Rocket 3.8 21:48:48 10° NNW 21:53:08 66° W 21:56:48 14° S
Helios 1A 3.9 21:51:52 10° NE 21:55:21 29° E 21:57:27 18° SE
Cosmos 2344 4.1 21:49:05 10° S 21:56:00 34° ESE 22:02:17 10° NE
GP-B 3.1 21:53:15 10° N 21:57:39 87° W 22:01:23 14° S
Iridium 4 Rocket 3.5 21:55:05 14° S 21:59:51 77° E 22:04:54 10° N
Helios 1B rocket 3.6 21:57:41 14° ESE 21:59:58 25° ENE 22:02:51 10° N
Cosmos 1607 4.3 21:54:12 10° NW 22:00:29 61° WSW 22:05:32 17° SSE
ARIANE 5 R/B 4.2 21:59:12 11° ESE 22:02:37 26° ENE 22:06:17 10° N
SWARM C 4.4 22:00:30 10° N 22:03:45 73° E 22:05:40 22° SSE
SWARM A 4.3 22:00:41 10° N 22:03:54 61° E 22:05:43 23° SSE
Cosmos 2285 Rocket 4.4 22:01:36 10° NNW 22:07:47 57° WSW 22:13:01 15° S
Cosmos 1420 Rocket 4.4 22:04:05 10° NNW 22:09:14 56° ENE 22:13:10 17° SE
NOSS 2-3 (D) 3.3 22:07:03 10° SSW 22:10:37 50° SE 22:14:20 10° NE
ALOS 2 4.1 22:11:55 13° ESE 22:15:06 28° ENE 22:18:51 10° N
Cosmos 1538 Rocket 4.0 22:11:35 14° S 22:16:04 64° ESE 22:21:15 10° NNE
Cosmos 2315 Rocket 4.3 22:13:38 18° SSE 22:18:14 54° E 22:24:16 10° NNE
Cosmos 1943 Rocket 3.4 22:16:33 18° SE 22:19:17 25° ESE 22:23:50 10° NE
CENTAUR R/B 4.2 22:13:49 10° W 22:19:36 40° NNW 22:26:50 10° NE
Iridium 45 4.1 22:18:34 23° S 22:20:18 82° W 22:23:23 10° N
Cosmos 1328 Rocket 3.6 22:24:39 21° S 22:27:26 65° E 22:31:46 10° NNE
Lacrosse 5 rocket 1.9 22:30:44 26° SE 22:31:01 26° SE 22:34:02 10° ENE
Cosmos 1666 Rocket 3.6 22:30:29 10° NNW 22:34:51 77° W 22:37:29 23° S
CZ-2C R/B 4.3 22:32:10 10° ESE 22:36:13 24° ENE 22:40:20 10° N
NOSS 2-3 (E) 3.1 22:34:31 10° SW 22:38:10 89° NW 22:42:04 10° NE
Cosmos 1703 4.2 22:37:14 12° SW 22:39:46 33° WNW 22:42:41 10° N
USA 215 3.5 22:37:29 19° SSE 22:42:02 51° SW 22:48:23 10° WNW
NOSS 3-2 (A) 4.4 22:41:48 10° WSW 22:46:54 46° NNW 22:53:07 10° NE
GEOS 3 Rocket 3.7 22:45:16 20° SE 22:49:08 81° SW 22:54:34 10° NW
Timation 1 Rocket 4.4 22:44:51 10° NW 22:50:50 76° WSW 22:54:46 22° SSE
S3M 4.1 22:48:41 16° SSW 22:53:44 73° WNW 22:59:53 10° N
Cosmos 1515 Rocket 3.8 22:55:38 27° SSE 22:57:48 55° E 23:02:04 10° NNE
ARGOS Delta rocket 4.1 22:53:27 10° NNE 22:58:53 81° ESE 23:02:18 22° S
CSL-04 DEB 4.1 22:57:32 30° SSE 22:59:14 84° ENE 23:02:56 10° NNW
USA 59 Rocket 0.7 23:01:29 23° ESE 23:01:29 23° ESE 23:03:49 10° ENE
Cosmos 1833 Rocket 3.3 22:55:57 10° NW 23:01:17 45° WSW 23:04:36 22° S
Cosmos 1953 3.7 22:58:49 10° NNW 23:01:50 26° W 23:03:47 16° SW
Spot 4 3.8 22:59:30 25° SSE 23:02:21 86° ENE 23:07:13 10° NNW
Cosmos 1709 Rocket 4.5 22:58:44 10° NNW 23:04:55 56° W 23:09:28 19° SSW
Meteor 1-16 Rocket 4.3 22:59:40 10° NNW 23:05:08 69° W 23:08:42 23° S
SAR-Lupe-2 4.4 23:05:49 24° ESE 23:07:13 36° ENE 23:10:14 10° N
Cosmos 2082 Rocket 2.8 23:01:42 10° NNW 23:07:15 54° NE 23:11:52 15° SE
Okean 3 3.8 23:09:18 29° SSE 23:10:56 47° E 23:14:48 10° NNE
Meteor 1-23 Rocket 4.3 23:07:55 19° SSW 23:11:58 75° WNW 23:17:34 10° N
Cosmos 1633 Rocket 4.0 23:08:29 10° NNW 23:12:34 40° W 23:15:02 21° SSW
Cosmos 2278 Rocket 2.6 23:09:54 24° S 23:12:59 48° ESE 23:18:25 10° NE
Cosmos 1400 Rocket 2.5 23:20:21 10° NNW 23:24:04 87° WSW 23:25:30 35° S
Cosmos 1624 Rocket 4.0 23:18:56 10° NNW 23:24:14 74° WSW 23:27:15 26° S
COSMOS 2406 4.4 23:20:04 10° NNW 23:25:25 40° NE 23:30:44 10° ESE
Cosmos 1680 Rocket 3.4 23:22:43 23° SSW 23:25:57 81° ESE 23:31:11 10° NNE
CZ-2C R/B 3.6 23:21:16 10° NNE 23:26:44 51° E 23:29:38 25° SSE
Cosmos 494 Rocket 4.0 23:24:38 25° S 23:27:42 72° ESE 23:32:57 10° NNE
NOSS 3-2 (C) 4.1 23:23:01 10° WSW 23:28:09 52° NW 23:34:26 10° NE
Helios 1A 4.4 23:26:31 10° N 23:29:59 30° WNW 23:33:09 12° SW
Meteor 1-12 Rocket 4.5 23:24:42 10° NNW 23:30:17 62° W 23:33:43 24° S
Cosmos 2056 Rocket 3.6 23:25:55 10° NNW 23:30:58 62° WSW 23:33:39 27° S
Helios 1B rocket 3.4 23:31:35 22° SW 23:32:48 28° W 23:35:50 10° NW
NOSS 2-3 (C) 4.0 23:30:01 10° WSW 23:33:18 46° NW 23:36:58 10° NE
Cosmos 1812 2.9 23:34:33 10° N 23:35:32 27° N 23:35:32 27° N
ARIANE 5 R/B 3.3 23:36:34 26° SSW 23:38:42 45° W 23:43:00 10° NNW
ACS3 Solar Sail 2.6 23:34:36 10° NNE 23:39:48 35° E 23:43:11 19° SE
USA 238 DEB 3.5 23:36:16 19° SSW 23:40:50 71° SE 23:47:36 10° NE
USA 238 3.5 23:36:31 19° SSW 23:41:02 70° SE 23:47:48 10° NE
Lacrosse 4 Rocket 4.4 23:39:01 10° N 23:41:18 14° NNE 23:43:35 10° ENE
Okean 2 4.3 23:42:04 20° SW 23:44:14 38° WNW 23:47:52 10° N
BREEZE-M DEB (TANK) 3.4 23:35:21 10° W 23:49:11 82° S 23:53:18 10° E
ALOS 2 3.4 23:49:18 25° SSW 23:51:19 39° W 23:55:27 10° NNW
Cosmos 1933 Rocket 3.9 23:47:44 10° NNW 23:51:55 51° W 23:53:53 28° SSW
Cosmos 1441 Rocket 2.7 23:54:17 40° SSW 23:55:18 75° WNW 23:58:32 10° N
